Starlink 32805

operational
NORAD ID: 62740 Int'l Des: 2025-014 Owner: SPXS Country: US Constellation: starlink
LEOCIRCULAR

Über Starlink 32805

Beschreibung wird geladen...

Live-Position

3D-Globus wird geladen...

Nächste Überflüge

Höhenverlauf

Altitude vs Time

uPlot chart will show altitude changes over time

Zweizeiliger Elementsatz

1 62740U 25014F 26095.43734013 .00047390 00000-0 17204-2 0 9997
2 62740 43.0029 3.7245 0001727 257.9487 102.1172 15.27583297 67342
Epoch: 5. Apr. 2026 • Age: 11 hours

Aktueller Status

Höhe 494.5 km
Geschwindigkeit 7.62 km/s
Subsatellitenpunkt -41.58°S, 138.71°E
Startdatum 21. Jan. 2025
Alter 1.2 years
Typ internet

Technische Details

Klassifizierung Payload
Masse 730.00 kg
Trockenmasse 700.00 kg
Gesamtmasse 730.00 kg
Länge 0.30 m
Durchmesser 4.10 m
Spannweite 29.00 m
Form Box + pan
Hersteller SPXS
Bus-Typ Starlink V2M
Phasenstatus In Orbit
Besitzer/Staat SPXS/US

Große Konstellationen

Loading constellations...